Time,TemperatureF,DewpointF,PressureIn,WindDirection,WindDirectionDegrees,WindSpeedMPH,WindSpeedGustMPH,Humidity,HourlyPrecipIn,Conditions,Clouds,dailyrainin,SoftwareType,DateUTC
2013-04-17 00:00:00,62.7,62.7,30.19,ESE,121,0.0,0.0,100,0.00,,,0.00,Wunderground v.1.15,2013-04-17 04:00:00,
2013-04-17 00:05:00,62.6,62.6,30.19,ESE,121,0.0,0.0,100,0.00,,,0.00,Wunderground v.1.15,2013-04-17 04:05:00,
2013-04-17 00:10:00,62.4,62.4,30.19,ESE,121,0.0,0.0,100,0.00,,,0.00,Wunderground v.1.15,2013-04-17 04:10:00,
2013-04-17 00:14:00,62.3,62.3,30.18,ESE,121,0.0,0.0,100,0.00,,,0.00,Wunderground v.1.15,2013-04-17 04:14:00,
2013-04-17 00:20:00,62.2,62.2,30.18,ESE,121,0.0,0.0,100,0.00,,,0.00,Wunderground v.1.15,2013-04-17 04:20:00,
2013-04-17 00:30:00,61.9,61.9,30.18,ESE,122,0.0,0.0,100,0.00,,,0.00,Wunderground v.1.15,2013-04-17 04:30:00,
2013-04-17 00:40:00,61.7,61.7,30.18,ESE,122,0.0,0.0,100,0.00,,,0.00,Wunderground v.1.15,2013-04-17 04:40:00,
2013-04-17 00:50:00,61.5,61.5,30.18,ESE,122,0.0,0.0,100,0.00,,,0.00,Wunderground v.1.15,2013-04-17 04:50:00,
2013-04-17 00:59:00,61.3,61.3,30.18,ESE,122,0.0,0.0,100,0.00,,,0.00,Wunderground v.1.15,2013-04-17 04:59:00,
2013-04-17 01:05:00,61.1,61.1,30.18,ESE,122,0.0,0.0,100,0.00,,,0.00,Wunderground v.1.15,2013-04-17 05:05:00,
2013-04-17 01:10:00,61.0,61.0,30.18,ESE,122,0.0,0.0,100,0.00,,,0.00,Wunderground v.1.15,2013-04-17 05:10:00,
2013-04-17 01:20:00,60.7,60.7,30.18,ESE,122,0.0,0.0,100,0.00,,,0.00,Wunderground v.1.15,2013-04-17 05:20:00,
2013-04-17 01:29:00,60.5,60.5,30.17,ESE,122,0.0,0.0,100,0.00,,,0.00,Wunderground v.1.15,2013-04-17 05:29:00,
2013-04-17 01:35:00,60.5,60.5,30.17,ESE,122,0.0,0.0,100,0.00,,,0.00,Wunderground v.1.15,2013-04-17 05:35:00,
2013-04-17 01:45:00,60.6,60.6,30.18,ESE,122,0.0,0.0,100,0.00,,,0.00,Wunderground v.1.15,2013-04-17 05:45:00,
2013-04-17 01:54:00,60.6,60.6,30.18,ESE,122,0.0,0.0,100,0.00,,,0.00,Wunderground v.1.15,2013-04-17 05:54:00,
2013-04-17 01:59:00,60.7,60.7,30.17,ESE,122,0.0,0.0,100,0.00,,,0.00,Wunderground v.1.15,2013-04-17 05:59:00,
2013-04-17 02:05:00,60.7,60.7,30.17,ESE,122,0.0,0.0,100,0.00,,,0.00,Wunderground v.1.15,2013-04-17 06:05:00,
2013-04-17 02:15:00,60.8,60.8,30.17,ESE,122,0.0,0.0,100,0.00,,,0.00,Wunderground v.1.15,2013-04-17 06:15:00,
2013-04-17 02:20:00,60.9,60.9,30.17,ESE,122,0.0,0.0,100,0.00,,,0.00,Wunderground v.1.15,2013-04-17 06:20:00,
2013-04-17 02:29:00,60.9,60.9,30.17,ESE,122,0.0,0.0,100,0.00,,,0.00,Wunderground v.1.15,2013-04-17 06:29:00,
2013-04-17 02:35:00,60.9,60.9,30.17,ESE,122,0.0,0.0,100,0.00,,,0.00,Wunderground v.1.15,2013-04-17 06:35:00,
2013-04-17 02:40:00,60.9,60.9,30.17,ESE,122,0.0,0.0,100,0.00,,,0.00,Wunderground v.1.15,2013-04-17 06:40:00,
2013-04-17 02:50:00,60.9,60.9,30.17,ESE,122,0.0,0.0,100,0.00,,,0.00,Wunderground v.1.15,2013-04-17 06:50:00,
2013-04-17 03:00:00,61.1,61.1,30.18,ESE,122,0.0,0.0,100,0.00,,,0.00,Wunderground v.1.15,2013-04-17 07:00:00,
2013-04-17 03:09:00,61.2,61.2,30.18,ESE,122,0.0,0.0,100,0.00,,,0.00,Wunderground v.1.15,2013-04-17 07:09:00,
2013-04-17 03:15:00,61.3,61.3,30.17,ESE,122,0.0,0.0,100,0.00,,,0.00,Wunderground v.1.15,2013-04-17 07:15:00,
2013-04-17 03:20:00,61.3,61.3,30.17,ESE,122,0.0,0.0,100,0.00,,,0.00,Wunderground v.1.15,2013-04-17 07:20:00,
2013-04-17 03:30:00,61.4,61.4,30.18,ESE,122,0.0,0.0,100,0.00,,,0.00,Wunderground v.1.15,2013-04-17 07:30:00,
2013-04-17 03:39:00,61.5,61.5,30.18,ESE,122,0.0,0.0,100,0.00,,,0.00,Wunderground v.1.15,2013-04-17 07:39:00,
2013-04-17 03:45:00,61.6,61.6,30.18,ESE,122,0.0,0.0,100,0.00,,,0.00,Wunderground v.1.15,2013-04-17 07:45:00,
2013-04-17 03:50:00,61.6,61.6,30.18,ESE,122,0.0,0.0,100,0.00,,,0.00,Wunderground v.1.15,2013-04-17 07:50:00,
2013-04-17 04:00:00,61.6,61.6,30.17,ESE,122,0.0,0.0,100,0.00,,,0.00,Wunderground v.1.15,2013-04-17 08:00:00,
2013-04-17 04:09:00,61.6,61.6,30.17,ESE,122,0.0,0.0,100,0.00,,,0.00,Wunderground v.1.15,2013-04-17 08:09:00,
2013-04-17 04:15:00,61.6,61.6,30.18,ESE,122,0.0,0.0,100,0.00,,,0.00,Wunderground v.1.15,2013-04-17 08:15:00,
2013-04-17 04:20:00,61.7,61.7,30.18,ESE,122,0.0,0.0,100,0.00,,,0.00,Wunderground v.1.15,2013-04-17 08:20:00,
2013-04-17 04:30:00,61.8,61.8,30.18,ESE,122,0.0,0.0,100,0.00,,,0.00,Wunderground v.1.15,2013-04-17 08:30:00,
2013-04-17 04:39:00,61.9,61.9,30.18,ESE,123,0.0,0.0,100,0.00,,,0.00,Wunderground v.1.15,2013-04-17 08:39:00,
2013-04-17 04:45:00,61.9,61.9,30.18,ESE,122,0.0,0.0,100,0.00,,,0.00,Wunderground v.1.15,2013-04-17 08:45:00,
2013-04-17 04:50:00,61.9,61.9,30.18,ESE,123,0.0,0.0,100,0.00,,,0.00,Wunderground v.1.15,2013-04-17 08:50:00,
2013-04-17 05:00:00,62.0,62.0,30.18,ESE,122,0.0,0.0,100,0.00,,,0.00,Wunderground v.1.15,2013-04-17 09:00:00,
2013-04-17 05:09:00,62.0,62.0,30.18,ESE,122,0.0,0.0,100,0.00,,,0.00,Wunderground v.1.15,2013-04-17 09:09:00,
2013-04-17 05:15:00,62.0,62.0,30.18,ESE,122,0.0,0.0,100,0.00,,,0.00,Wunderground v.1.15,2013-04-17 09:15:00,
2013-04-17 05:20:00,62.0,62.0,30.18,ESE,123,0.0,0.0,100,0.00,,,0.00,Wunderground v.1.15,2013-04-17 09:20:00,
2013-04-17 05:30:00,61.9,61.9,30.18,ESE,123,0.0,0.0,100,0.00,,,0.00,Wunderground v.1.15,2013-04-17 09:30:00,
2013-04-17 05:40:00,62.0,62.0,30.18,ESE,123,0.0,0.0,100,0.00,,,0.00,Wunderground v.1.15,2013-04-17 09:40:00,
2013-04-17 05:49:00,61.9,61.9,30.18,ESE,123,0.0,0.0,100,0.00,,,0.00,Wunderground v.1.15,2013-04-17 09:49:00,
2013-04-17 05:55:00,61.8,61.8,30.18,ESE,123,0.0,0.0,100,0.00,,,0.00,Wunderground v.1.15,2013-04-17 09:55:00,
2013-04-17 06:00:00,61.8,61.8,30.18,ESE,122,0.0,0.0,100,0.00,,,0.00,Wunderground v.1.15,2013-04-17 10:00:00,
2013-04-17 06:10:00,61.8,61.8,30.18,ESE,123,0.0,0.0,100,0.00,,,0.00,Wunderground v.1.15,2013-04-17 10:10:00,
2013-04-17 06:19:00,61.7,61.7,30.19,ESE,123,0.0,0.0,100,0.00,,,0.00,Wunderground v.1.15,2013-04-17 10:19:00,
2013-04-17 06:25:00,61.7,61.7,30.19,ESE,123,0.0,0.0,100,0.00,,,0.00,Wunderground v.1.15,2013-04-17 10:25:00,
2013-04-17 06:30:00,61.7,61.7,30.19,ESE,122,0.0,0.0,100,0.00,,,0.00,Wunderground v.1.15,2013-04-17 10:30:00,
2013-04-17 06:40:00,61.6,61.6,30.19,ESE,122,0.0,0.0,100,0.00,,,0.00,Wunderground v.1.15,2013-04-17 10:40:00,
2013-04-17 06:49:00,61.6,61.6,30.19,ESE,122,0.0,0.0,100,0.00,,,0.00,Wunderground v.1.15,2013-04-17 10:49:00,
2013-04-17 06:59:00,61.5,61.5,30.19,ESE,122,0.0,0.0,100,0.00,,,0.00,Wunderground v.1.15,2013-04-17 10:59:00,
2013-04-17 07:05:00,61.4,61.4,30.19,ESE,123,0.0,0.0,100,0.00,,,0.00,Wunderground v.1.15,2013-04-17 11:05:00,
2013-04-17 07:10:00,61.3,61.3,30.19,ESE,122,0.0,0.0,100,0.00,,,0.00,Wunderground v.1.15,2013-04-17 11:10:00,
2013-04-17 07:20:00,61.1,61.1,30.20,ESE,123,0.0,0.0,100,0.00,,,0.00,Wunderground v.1.15,2013-04-17 11:20:00,
2013-04-17 07:29:00,60.9,60.9,30.21,ESE,123,0.0,0.0,100,0.00,,,0.00,Wunderground v.1.15,2013-04-17 11:29:00,
2013-04-17 07:35:00,60.9,60.9,30.21,ESE,123,0.0,0.0,100,0.00,,,0.00,Wunderground v.1.15,2013-04-17 11:35:00,
2013-04-17 07:44:00,60.7,60.7,30.22,ESE,122,0.0,0.0,100,0.00,,,0.00,Wunderground v.1.15,2013-04-17 11:44:00,
2013-04-17 07:50:00,60.8,60.8,30.22,ESE,123,0.0,0.0,100,0.00,,,0.00,Wunderground v.1.15,2013-04-17 11:50:00,
2013-04-17 07:59:00,60.9,60.9,30.22,ESE,123,0.0,0.0,100,0.00,,,0.00,Wunderground v.1.15,2013-04-17 11:59:00,
2013-04-17 08:05:00,61.0,61.0,30.22,ESE,122,0.0,0.0,100,0.00,,,0.00,Wunderground v.1.15,2013-04-17 12:05:00,
2013-04-17 08:10:00,61.1,61.1,30.22,ESE,123,0.0,0.0,100,0.00,,,0.00,Wunderground v.1.15,2013-04-17 12:10:00,
2013-04-17 08:20:00,61.4,61.4,30.22,ESE,122,0.0,0.0,100,0.00,,,0.00,Wunderground v.1.15,2013-04-17 12:20:00,
2013-04-17 08:29:00,62.1,62.1,30.22,ESE,122,0.0,0.0,100,0.00,,,0.00,Wunderground v.1.15,2013-04-17 12:29:00,
2013-04-17 08:39:00,62.8,62.8,30.22,ESE,123,0.0,0.0,100,0.00,,,0.00,Wunderground v.1.15,2013-04-17 12:39:00,
2013-04-17 08:45:00,63.1,63.1,30.22,ESE,123,0.0,0.0,100,0.00,,,0.00,Wunderground v.1.15,2013-04-17 12:45:00,
2013-04-17 08:50:00,63.4,63.4,30.22,ESE,123,0.0,0.0,100,0.00,,,0.00,Wunderground v.1.15,2013-04-17 12:50:00,
2013-04-17 09:05:00,64.6,64.6,30.22,ESE,123,0.0,0.0,100,0.00,,,0.00,Wunderground v.1.15,2013-04-17 13:05:00,
2013-04-17 09:15:00,65.2,64.6,30.22,ESE,123,0.0,0.0,98,0.00,,,0.00,Wunderground v.1.15,2013-04-17 13:15:00,
2013-04-17 09:20:00,65.5,64.9,30.22,ESE,123,0.0,0.0,98,0.00,,,0.00,Wunderground v.1.15,2013-04-17 13:20:00,
2013-04-17 09:29:00,66.2,64.7,30.22,ESE,123,0.0,0.0,95,0.00,,,0.00,Wunderground v.1.15,2013-04-17 13:29:00,
2013-04-17 09:35:00,66.6,65.1,30.22,ESE,123,0.0,0.0,95,0.00,,,0.00,Wunderground v.1.15,2013-04-17 13:35:00,
2013-04-17 09:40:00,66.8,65.0,30.22,ESE,123,0.0,0.0,94,0.00,,,0.00,Wunderground v.1.15,2013-04-17 13:40:00,
2013-04-17 09:50:00,67.3,65.2,30.21,ESE,123,0.0,0.0,93,0.00,,,0.00,Wunderground v.1.15,2013-04-17 13:50:00,
2013-04-17 09:59:00,67.9,65.5,30.21,ESE,123,0.0,0.0,92,0.00,,,0.00,Wunderground v.1.15,2013-04-17 13:59:00,
2013-04-17 10:09:00,68.4,65.4,30.21,ESE,123,0.0,0.0,90,0.00,,,0.00,Wunderground v.1.15,2013-04-17 14:09:00,
2013-04-17 10:15:00,68.8,66.1,30.21,ESE,122,0.0,0.0,91,0.00,,,0.00,Wunderground v.1.15,2013-04-17 14:15:00,
2013-04-17 10:20:00,69.2,65.8,30.21,North,355,0.0,0.0,89,0.00,,,0.00,Wunderground v.1.15,2013-04-17 14:20:00,
2013-04-17 10:30:00,70.2,66.1,30.21,North,355,0.0,0.0,87,0.00,,,0.00,Wunderground v.1.15,2013-04-17 14:30:00,
2013-04-17 10:39:00,71.1,67.4,30.21,North,355,0.0,0.0,88,0.00,,,0.00,Wunderground v.1.15,2013-04-17 14:39:00,
2013-04-17 10:45:00,71.3,66.9,30.20,North,355,0.0,0.0,86,0.00,,,0.00,Wunderground v.1.15,2013-04-17 14:45:00,
2013-04-17 10:50:00,71.7,66.9,30.20,North,355,0.0,0.0,85,0.00,,,0.00,Wunderground v.1.15,2013-04-17 14:50:00,
2013-04-17 11:00:00,72.1,67.0,30.20,North,355,0.0,0.0,84,0.00,,,0.00,Wunderground v.1.15,2013-04-17 15:00:00,
2013-04-17 11:09:00,72.7,66.9,30.20,North,355,0.0,0.0,82,0.00,,,0.00,Wunderground v.1.15,2013-04-17 15:09:00,
2013-04-17 11:19:00,73.3,67.8,30.20,North,355,0.0,0.0,83,0.00,,,0.00,Wunderground v.1.15,2013-04-17 15:19:00,
2013-04-17 11:25:00,73.6,67.8,30.20,North,355,0.0,0.0,82,0.00,,,0.00,Wunderground v.1.15,2013-04-17 15:25:00,
2013-04-17 11:30:00,74.0,67.4,30.19,North,355,0.0,0.0,80,0.00,,,0.00,Wunderground v.1.15,2013-04-17 15:30:00,
2013-04-17 11:40:00,74.8,68.2,30.19,North,355,0.0,0.0,80,0.00,,,0.00,Wunderground v.1.15,2013-04-17 15:40:00,
2013-04-17 11:49:00,75.7,69.1,30.19,North,355,0.0,0.0,80,0.00,,,0.00,Wunderground v.1.15,2013-04-17 15:49:00,
2013-04-17 11:55:00,76.5,68.7,30.19,North,355,0.0,0.0,77,0.00,,,0.00,Wunderground v.1.15,2013-04-17 15:55:00,
2013-04-17 12:00:00,77.1,67.8,30.18,North,355,0.0,0.0,73,0.00,,,0.00,Wunderground v.1.15,2013-04-17 16:00:00,
2013-04-17 12:10:00,78.5,70.3,30.18,North,355,0.0,0.0,76,0.00,,,0.00,Wunderground v.1.15,2013-04-17 16:10:00,
2013-04-17 12:19:00,79.7,69.9,30.18,North,355,0.0,0.0,72,0.00,,,0.00,Wunderground v.1.15,2013-04-17 16:19:00,
2013-04-17 12:30:00,80.6,70.7,30.17,North,355,0.0,0.0,72,0.00,,,0.00,Wunderground v.1.15,2013-04-17 16:30:00,
2013-04-17 12:40:00,80.6,69.1,30.17,North,355,0.0,0.0,68,0.00,,,0.00,Wunderground v.1.15,2013-04-17 16:40:00,
2013-04-17 12:49:00,80.4,69.7,30.17,North,355,0.0,0.0,70,0.00,,,0.00,Wunderground v.1.15,2013-04-17 16:49:00,
2013-04-17 12:59:00,79.8,69.1,30.17,North,355,0.0,0.0,70,0.00,,,0.00,Wunderground v.1.15,2013-04-17 16:59:00,
2013-04-17 13:05:00,79.6,69.8,30.17,North,355,0.0,0.0,72,0.00,,,0.00,Wunderground v.1.15,2013-04-17 17:05:00,
2013-04-17 13:15:00,80.5,69.8,30.16,North,355,0.0,1.0,70,0.00,,,0.00,Wunderground v.1.15,2013-04-17 17:15:00,
2013-04-17 13:20:00,80.8,70.5,30.16,North,355,0.0,0.0,71,0.00,,,0.00,Wunderground v.1.15,2013-04-17 17:20:00,
2013-04-17 13:29:00,81.1,70.4,30.15,North,355,0.0,0.0,70,0.00,,,0.00,Wunderground v.1.15,2013-04-17 17:29:00,
2013-04-17 13:39:00,81.8,69.3,30.15,North,355,0.0,0.0,66,0.00,,,0.00,Wunderground v.1.15,2013-04-17 17:39:00,
2013-04-17 13:45:00,81.6,70.0,30.14,North,355,0.0,0.0,68,0.00,,,0.00,Wunderground v.1.15,2013-04-17 17:45:00,
2013-04-17 13:54:00,81.2,68.8,30.14,North,355,0.0,0.0,66,0.00,,,0.00,Wunderground v.1.15,2013-04-17 17:54:00,
2013-04-17 13:59:00,80.9,69.3,30.14,North,355,0.0,0.0,68,0.00,,,0.00,Wunderground v.1.15,2013-04-17 17:59:00,
2013-04-17 14:09:00,81.2,69.2,30.14,North,355,0.0,0.0,67,0.00,,,0.00,Wunderground v.1.15,2013-04-17 18:09:00,
2013-04-17 14:15:00,81.5,69.9,30.13,North,355,0.0,0.0,68,0.00,,,0.00,Wunderground v.1.15,2013-04-17 18:15:00,
2013-04-17 14:20:00,81.5,69.5,30.13,North,355,0.0,0.0,67,0.00,,,0.00,Wunderground v.1.15,2013-04-17 18:20:00,
2013-04-17 14:30:00,81.6,69.1,30.13,North,355,0.0,0.0,66,0.00,,,0.00,Wunderground v.1.15,2013-04-17 18:30:00,
2013-04-17 14:39:00,81.4,69.8,30.13,North,355,0.0,0.0,68,0.00,,,0.00,Wunderground v.1.15,2013-04-17 18:39:00,
2013-04-17 14:45:00,82.1,70.1,30.12,North,355,0.0,0.0,67,0.00,,,0.00,Wunderground v.1.15,2013-04-17 18:45:00,
2013-04-17 14:50:00,82.9,70.8,30.12,North,355,0.0,0.0,67,0.00,,,0.00,Wunderground v.1.15,2013-04-17 18:50:00,
2013-04-17 15:00:00,84.4,70.0,30.11,North,355,0.0,0.0,62,0.00,,,0.00,Wunderground v.1.15,2013-04-17 19:00:00,
2013-04-17 15:09:00,85.3,70.8,30.11,North,349,0.0,0.0,62,0.00,,,0.00,Wunderground v.1.15,2013-04-17 19:09:00,
2013-04-17 15:15:00,85.2,70.2,30.09,North,350,0.0,0.0,61,0.00,,,0.00,Wunderground v.1.15,2013-04-17 19:15:00,
2013-04-17 15:20:00,85.7,72.1,30.09,North,350,0.0,0.0,64,0.00,,,0.00,Wunderground v.1.15,2013-04-17 19:20:00,
2013-04-17 15:30:00,85.4,69.4,30.09,North,5,1.0,1.0,59,0.00,,,0.00,Wunderground v.1.15,2013-04-17 19:30:00,
2013-04-17 15:40:00,85.8,69.8,30.09,SSE,156,0.0,0.0,59,0.00,,,0.00,Wunderground v.1.15,2013-04-17 19:40:00,
2013-04-17 15:49:00,85.2,69.3,30.08,SSE,156,0.0,0.0,59,0.00,,,0.00,Wunderground v.1.15,2013-04-17 19:49:00,
2013-04-17 15:55:00,84.8,69.4,30.08,SSE,156,0.0,0.0,60,0.00,,,0.00,Wunderground v.1.15,2013-04-17 19:55:00,
2013-04-17 16:00:00,84.7,70.7,30.07,SSE,156,0.0,0.0,63,0.00,,,0.00,Wunderground v.1.15,2013-04-17 20:00:00,
2013-04-17 16:10:00,83.6,68.7,30.07,SSE,158,1.0,1.0,61,0.00,,,0.00,Wunderground v.1.15,2013-04-17 20:10:00,
2013-04-17 16:19:00,83.9,69.0,30.07,SSE,163,1.0,1.0,61,0.00,,,0.00,Wunderground v.1.15,2013-04-17 20:19:00,
2013-04-17 16:30:00,83.4,68.1,30.07,SSE,163,1.0,1.0,60,0.00,,,0.00,Wunderground v.1.15,2013-04-17 20:30:00,
2013-04-17 16:40:00,82.8,68.9,30.07,SSE,163,0.0,0.0,63,0.00,,,0.00,Wunderground v.1.15,2013-04-17 20:40:00,
2013-04-17 16:50:00,82.1,67.8,30.07,SSE,163,0.0,0.0,62,0.00,,,0.00,Wunderground v.1.15,2013-04-17 20:50:00,
2013-04-17 16:59:00,81.5,68.1,30.07,SSE,163,0.0,1.0,64,0.00,,,0.00,Wunderground v.1.15,2013-04-17 20:59:00,
2013-04-17 17:05:00,81.2,68.3,30.07,SSE,163,0.0,1.0,65,0.00,,,0.00,Wunderground v.1.15,2013-04-17 21:05:00,
2013-04-17 17:10:00,81.1,68.2,30.07,SSE,163,0.0,0.0,65,0.00,,,0.00,Wunderground v.1.15,2013-04-17 21:10:00,
2013-04-17 17:19:00,80.8,68.8,30.07,SSE,163,0.0,0.0,67,0.00,,,0.00,Wunderground v.1.15,2013-04-17 21:19:00,
2013-04-17 17:29:00,80.6,68.6,30.08,SSE,163,0.0,0.0,67,0.00,,,0.00,Wunderground v.1.15,2013-04-17 21:29:00,
2013-04-17 17:35:00,80.5,67.6,30.08,SSE,163,0.0,0.0,65,0.00,,,0.00,Wunderground v.1.15,2013-04-17 21:35:00,
2013-04-17 17:40:00,80.3,67.9,30.08,SSE,163,0.0,0.0,66,0.00,,,0.00,Wunderground v.1.15,2013-04-17 21:40:00,
2013-04-17 17:49:00,80.1,67.3,30.07,SSE,163,0.0,0.0,65,0.00,,,0.00,Wunderground v.1.15,2013-04-17 21:49:00,
2013-04-17 17:59:00,79.9,67.5,30.07,SSE,163,0.0,0.0,66,0.00,,,0.00,Wunderground v.1.15,2013-04-17 21:59:00,
2013-04-17 18:05:00,79.8,67.4,30.07,SSE,163,0.0,1.0,66,0.00,,,0.00,Wunderground v.1.15,2013-04-17 22:05:00,
2013-04-17 18:10:00,79.6,67.2,30.07,SSE,163,0.0,0.0,66,0.00,,,0.00,Wunderground v.1.15,2013-04-17 22:10:00,
2013-04-17 18:20:00,79.3,67.4,30.07,SSE,163,0.0,0.0,67,0.00,,,0.00,Wunderground v.1.15,2013-04-17 22:20:00,
2013-04-17 18:29:00,79.1,68.1,30.08,SSE,163,0.0,0.0,69,0.00,,,0.00,Wunderground v.1.15,2013-04-17 22:29:00,
2013-04-17 18:35:00,78.9,67.4,30.08,SSE,163,0.0,0.0,68,0.00,,,0.00,Wunderground v.1.15,2013-04-17 22:35:00,
2013-04-17 18:40:00,78.7,67.7,30.08,SSE,163,0.0,0.0,69,0.00,,,0.00,Wunderground v.1.15,2013-04-17 22:40:00,
2013-04-17 18:50:00,78.6,67.6,30.08,SSE,163,0.0,0.0,69,0.00,,,0.00,Wunderground v.1.15,2013-04-17 22:50:00,
2013-04-17 18:59:00,78.3,68.1,30.09,SSE,163,0.0,0.0,71,0.00,,,0.00,Wunderground v.1.15,2013-04-17 22:59:00,
2013-04-17 19:05:00,78.1,67.9,30.09,SSE,163,0.0,0.0,71,0.00,,,0.00,Wunderground v.1.15,2013-04-17 23:05:00,
2013-04-17 19:10:00,77.9,67.7,30.09,SSE,163,0.0,0.0,71,0.00,,,0.00,Wunderground v.1.15,2013-04-17 23:10:00,
2013-04-17 19:19:00,77.5,68.2,30.10,SSE,163,0.0,0.0,73,0.00,,,0.00,Wunderground v.1.15,2013-04-17 23:19:00,
2013-04-17 19:29:00,75.3,66.4,30.13,North,11,1.0,3.0,74,0.00,,,0.00,Wunderground v.1.15,2013-04-17 23:29:00,
2013-04-17 19:35:00,74.1,66.4,30.13,North,9,1.0,3.0,77,0.00,,,0.00,Wunderground v.1.15,2013-04-17 23:35:00,
2013-04-17 19:44:00,72.6,65.3,30.13,NE,35,0.0,0.0,78,0.00,,,0.00,Wunderground v.1.15,2013-04-17 23:44:00,
2013-04-17 19:50:00,71.9,64.7,30.13,NE,34,0.0,0.0,78,0.00,,,0.00,Wunderground v.1.15,2013-04-17 23:50:00,
2013-04-17 19:59:00,71.0,64.9,30.14,NNE,25,0.0,1.0,81,0.00,,,0.00,Wunderground v.1.15,2013-04-17 23:59:00,
2013-04-17 20:05:00,70.5,64.4,30.14,NE,43,0.0,2.0,81,0.00,,,0.00,Wunderground v.1.15,2013-04-18 00:05:00,
2013-04-17 20:10:00,70.0,64.2,30.14,North,360,0.0,0.0,82,0.00,,,0.00,Wunderground v.1.15,2013-04-18 00:10:00,
2013-04-17 20:19:00,69.1,64.1,30.15,NNE,15,0.0,0.0,84,0.00,,,0.00,Wunderground v.1.15,2013-04-18 00:19:00,
2013-04-17 20:29:00,68.3,64.6,30.15,NNE,30,0.0,0.0,88,0.00,,,0.00,Wunderground v.1.15,2013-04-18 00:29:00,
2013-04-17 20:35:00,68.0,64.3,30.15,NNE,30,0.0,0.0,88,0.00,,,0.00,Wunderground v.1.15,2013-04-18 00:35:00,
2013-04-17 20:40:00,67.7,64.3,30.15,NNE,30,0.0,0.0,89,0.00,,,0.00,Wunderground v.1.15,2013-04-18 00:40:00,
2013-04-17 20:50:00,67.3,64.6,30.14,NNE,30,0.0,0.0,91,0.00,,,0.00,Wunderground v.1.15,2013-04-18 00:50:00,
2013-04-17 20:59:00,66.8,64.4,30.14,NNE,29,0.0,0.0,92,0.00,,,0.00,Wunderground v.1.15,2013-04-18 00:59:00,
2013-04-17 21:05:00,66.5,64.1,30.14,NNE,30,0.0,0.0,92,0.00,,,0.00,Wunderground v.1.15,2013-04-18 01:05:00,
2013-04-17 21:10:00,66.3,64.2,30.14,NNE,29,0.0,0.0,93,0.00,,,0.00,Wunderground v.1.15,2013-04-18 01:10:00,
2013-04-17 21:20:00,66.1,64.0,30.15,NNE,29,0.0,0.0,93,0.00,,,0.00,Wunderground v.1.15,2013-04-18 01:20:00,
2013-04-17 21:29:00,65.9,64.1,30.14,NNE,30,0.0,0.0,94,0.00,,,0.00,Wunderground v.1.15,2013-04-18 01:29:00,
2013-04-17 21:35:00,65.8,64.0,30.14,NNE,30,0.0,0.0,94,0.00,,,0.00,Wunderground v.1.15,2013-04-18 01:35:00,
2013-04-17 21:45:00,65.6,63.8,30.15,NNE,30,0.0,0.0,94,0.00,,,0.00,Wunderground v.1.15,2013-04-18 01:45:00,
2013-04-17 21:50:00,65.6,63.8,30.15,NNE,30,0.0,0.0,94,0.00,,,0.00,Wunderground v.1.15,2013-04-18 01:50:00,
2013-04-17 21:59:00,65.4,63.9,30.15,NNE,30,0.0,0.0,95,0.00,,,0.00,Wunderground v.1.15,2013-04-18 01:59:00,
2013-04-17 22:05:00,65.4,63.9,30.15,NNE,30,0.0,0.0,95,0.00,,,0.00,Wunderground v.1.15,2013-04-18 02:05:00,
2013-04-17 22:15:00,65.3,63.8,30.14,NNE,30,0.0,0.0,95,0.00,,,0.00,Wunderground v.1.15,2013-04-18 02:15:00,
2013-04-17 22:25:00,65.2,63.7,30.14,NNE,30,0.0,0.0,95,0.00,,,0.00,Wunderground v.1.15,2013-04-18 02:25:00,
2013-04-17 22:30:00,65.3,63.5,30.14,NNE,29,0.0,0.0,94,0.00,,,0.00,Wunderground v.1.15,2013-04-18 02:30:00,
2013-04-17 22:40:00,65.4,63.9,30.14,NNE,29,0.0,0.0,95,0.00,,,0.00,Wunderground v.1.15,2013-04-18 02:40:00,
2013-04-17 22:49:00,65.5,64.3,30.14,NNE,29,0.0,0.0,96,0.00,,,0.00,Wunderground v.1.15,2013-04-18 02:49:00,
2013-04-17 22:55:00,65.5,64.3,30.14,NNE,30,0.0,0.0,96,0.00,,,0.00,Wunderground v.1.15,2013-04-18 02:55:00,
2013-04-17 23:04:00,65.3,64.4,30.13,NNE,30,0.0,0.0,97,0.00,,,0.00,Wunderground v.1.15,2013-04-18 03:04:00,
2013-04-17 23:10:00,65.2,64.6,30.13,NNE,29,0.0,0.0,98,0.00,,,0.00,Wunderground v.1.15,2013-04-18 03:10:00,
2013-04-17 23:19:00,64.9,64.3,30.11,NNE,30,0.0,0.0,98,0.00,,,0.00,Wunderground v.1.15,2013-04-18 03:19:00,
2013-04-17 23:25:00,64.8,64.5,30.11,NNE,30,0.0,0.0,99,0.00,,,0.00,Wunderground v.1.15,2013-04-18 03:25:00,
2013-04-17 23:35:00,64.5,64.2,30.09,NNE,30,0.0,0.0,99,0.00,,,0.00,Wunderground v.1.15,2013-04-18 03:35:00,
2013-04-17 23:44:00,64.1,63.8,30.07,NNE,29,0.0,0.0,99,0.00,,,0.00,Wunderground v.1.15,2013-04-18 03:44:00,
2013-04-17 23:49:00,63.9,63.9,30.07,NNE,30,0.0,0.0,100,0.00,,,0.00,Wunderground v.1.15,2013-04-18 03:49:00,
2013-04-17 23:59:00,63.6,63.6,30.04,NNE,30,0.0,0.0,100,0.00,,,0.00,Wunderground v.1.15,2013-04-18 03:59:00,